Year,Month,Day,Hour,Minute,Value (Times are PST for temperature in C)
2013,04,24,00,00,9.30
2013,04,24,00,01,9.40
2013,04,24,00,02,9.40
2013,04,24,00,03,9.40
2013,04,24,00,04,9.40
2013,04,24,00,05,9.40
2013,04,24,00,06,9.50
2013,04,24,00,07,9.50
2013,04,24,00,08,9.50
2013,04,24,00,09,9.50
2013,04,24,00,10,9.50
2013,04,24,00,11,9.50
2013,04,24,00,12,9.40
2013,04,24,00,13,9.30
2013,04,24,00,14,9.20
2013,04,24,00,15,9.10
2013,04,24,00,16,9.00
2013,04,24,00,17,8.90
2013,04,24,00,18,8.80
2013,04,24,00,19,8.70
2013,04,24,00,20,8.60
2013,04,24,00,21,8.50
2013,04,24,00,22,8.40
2013,04,24,00,23,8.40
2013,04,24,00,24,8.40
2013,04,24,00,25,8.40
2013,04,24,00,26,8.40
2013,04,24,00,27,8.30
2013,04,24,00,28,8.40
2013,04,24,00,29,8.40
2013,04,24,00,30,8.50
2013,04,24,00,31,8.60
2013,04,24,00,32,8.70
2013,04,24,00,33,8.80
2013,04,24,00,34,8.80
2013,04,24,00,35,8.80
2013,04,24,00,36,8.80
2013,04,24,00,37,8.80
2013,04,24,00,38,8.80
2013,04,24,00,39,8.80
2013,04,24,00,40,8.80
2013,04,24,00,41,8.80
2013,04,24,00,42,8.90
2013,04,24,00,43,8.90
2013,04,24,00,44,8.90
2013,04,24,00,45,9.00
2013,04,24,00,46,9.00
2013,04,24,00,47,9.10
2013,04,24,00,48,9.10
2013,04,24,00,49,9.10
2013,04,24,00,50,9.10
2013,04,24,00,51,9.10
2013,04,24,00,52,9.20
2013,04,24,00,53,9.20
2013,04,24,00,54,9.20
2013,04,24,00,55,9.20
2013,04,24,00,56,9.20
2013,04,24,00,57,9.30
2013,04,24,00,58,9.30
2013,04,24,00,59,9.30
2013,04,24,01,00,9.30
2013,04,24,01,01,9.30
2013,04,24,01,02,9.30
2013,04,24,01,03,9.30
2013,04,24,01,04,9.30
2013,04,24,01,05,9.30
2013,04,24,01,06,9.30
2013,04,24,01,07,9.30
2013,04,24,01,08,9.30
2013,04,24,01,09,9.30
2013,04,24,01,10,9.30
2013,04,24,01,11,9.30
2013,04,24,01,12,9.30
2013,04,24,01,13,9.30
2013,04,24,01,14,9.30
2013,04,24,01,15,9.30
2013,04,24,01,16,9.30
2013,04,24,01,17,9.40
2013,04,24,01,18,9.40
2013,04,24,01,19,9.40
2013,04,24,01,20,9.40
2013,04,24,01,21,9.40
2013,04,24,01,22,9.40
2013,04,24,01,23,9.40
2013,04,24,01,24,9.40
2013,04,24,01,25,9.40
2013,04,24,01,26,9.40
2013,04,24,01,27,9.40
2013,04,24,01,28,9.40
2013,04,24,01,29,9.30
2013,04,24,01,30,9.30
2013,04,24,01,31,9.30
2013,04,24,01,32,9.20
2013,04,24,01,33,9.10
2013,04,24,01,34,9.00
2013,04,24,01,35,9.00
2013,04,24,01,36,9.00
2013,04,24,01,37,9.00
2013,04,24,01,38,8.90
2013,04,24,01,39,8.80
2013,04,24,01,40,8.70
2013,04,24,01,41,8.60
2013,04,24,01,42,8.50
2013,04,24,01,43,8.40
2013,04,24,01,44,8.40
2013,04,24,01,45,8.30
2013,04,24,01,46,8.30
2013,04,24,01,47,8.20
2013,04,24,01,48,8.20
2013,04,24,01,49,8.30
2013,04,24,01,50,8.30
2013,04,24,01,51,8.30
2013,04,24,01,52,8.30
2013,04,24,01,53,8.40
2013,04,24,01,54,8.50
2013,04,24,01,55,8.60
2013,04,24,01,56,8.60
2013,04,24,01,57,8.70
2013,04,24,01,58,8.70
2013,04,24,01,59,8.70
2013,04,24,02,00,8.70
2013,04,24,02,01,8.70
2013,04,24,02,02,8.80
2013,04,24,02,03,8.80
2013,04,24,02,04,8.90
2013,04,24,02,05,9.00
2013,04,24,02,06,9.10
2013,04,24,02,07,9.10
2013,04,24,02,08,9.10
2013,04,24,02,09,9.10
2013,04,24,02,10,9.20
2013,04,24,02,11,9.20
2013,04,24,02,12,9.30
2013,04,24,02,13,9.40
2013,04,24,02,14,9.40
2013,04,24,02,15,9.40
2013,04,24,02,16,9.50
2013,04,24,02,17,9.50
2013,04,24,02,18,9.60
2013,04,24,02,19,9.60
2013,04,24,02,20,9.70
2013,04,24,02,21,9.70
2013,04,24,02,22,9.70
2013,04,24,02,23,9.80
2013,04,24,02,24,9.80
2013,04,24,02,25,9.90
2013,04,24,02,26,10.00
2013,04,24,02,27,10.00
2013,04,24,02,28,9.90
2013,04,24,02,29,9.90
2013,04,24,02,30,9.80
2013,04,24,02,31,9.70
2013,04,24,02,32,9.60
2013,04,24,02,33,9.50
2013,04,24,02,34,9.40
2013,04,24,02,35,9.30
2013,04,24,02,36,9.10
2013,04,24,02,37,9.00
2013,04,24,02,38,8.90
2013,04,24,02,39,8.90
2013,04,24,02,40,8.80
2013,04,24,02,41,8.70
2013,04,24,02,42,8.70
2013,04,24,02,43,8.70
2013,04,24,02,44,8.70
2013,04,24,02,45,8.70
2013,04,24,02,46,8.70
2013,04,24,02,47,8.80
2013,04,24,02,48,8.90
2013,04,24,02,49,8.90
2013,04,24,02,50,8.90
2013,04,24,02,51,8.80
2013,04,24,02,52,8.70
2013,04,24,02,53,8.70
2013,04,24,02,54,8.70
2013,04,24,02,55,8.70
2013,04,24,02,56,8.70
2013,04,24,02,57,8.70
2013,04,24,02,58,8.60
2013,04,24,02,59,8.60
2013,04,24,03,00,8.60
2013,04,24,03,01,8.60
2013,04,24,03,02,8.60
2013,04,24,03,03,8.60
2013,04,24,03,04,8.70
2013,04,24,03,05,8.70
2013,04,24,03,06,8.80
2013,04,24,03,07,8.80
2013,04,24,03,08,8.90
2013,04,24,03,09,9.00
2013,04,24,03,10,9.10
2013,04,24,03,11,9.20
2013,04,24,03,12,9.20
2013,04,24,03,13,9.30
2013,04,24,03,14,9.30
2013,04,24,03,15,9.40
2013,04,24,03,16,9.60
2013,04,24,03,17,9.60
2013,04,24,03,18,9.60
2013,04,24,03,19,9.60
2013,04,24,03,20,9.60
2013,04,24,03,21,9.50
2013,04,24,03,22,9.50
2013,04,24,03,23,9.40
2013,04,24,03,24,9.20
2013,04,24,03,25,9.10
2013,04,24,03,26,9.00
2013,04,24,03,27,8.90
2013,04,24,03,28,8.80
2013,04,24,03,29,8.80
2013,04,24,03,30,8.80
2013,04,24,03,31,8.70
2013,04,24,03,32,8.70
2013,04,24,03,33,8.70
2013,04,24,03,34,8.70
2013,04,24,03,35,8.50
2013,04,24,03,36,8.50
2013,04,24,03,37,8.40
2013,04,24,03,38,8.50
2013,04,24,03,39,8.60
2013,04,24,03,40,8.70
2013,04,24,03,41,8.80
2013,04,24,03,42,8.90
2013,04,24,03,43,9.00
2013,04,24,03,44,9.10
2013,04,24,03,45,9.10
2013,04,24,03,46,9.20
2013,04,24,03,47,9.20
2013,04,24,03,48,9.20
2013,04,24,03,49,9.10
2013,04,24,03,50,9.10
2013,04,24,03,51,9.00
2013,04,24,03,52,8.90
2013,04,24,03,53,8.90
2013,04,24,03,54,8.80
2013,04,24,03,55,8.80
2013,04,24,03,56,8.70
2013,04,24,03,57,8.70
2013,04,24,03,58,8.70
2013,04,24,03,59,8.60
2013,04,24,04,00,8.50
2013,04,24,04,01,8.40
2013,04,24,04,02,8.30
2013,04,24,04,03,8.20
2013,04,24,04,04,8.10
2013,04,24,04,05,8.00
2013,04,24,04,06,7.90
2013,04,24,04,07,7.90
2013,04,24,04,08,7.90
2013,04,24,04,09,8.00
2013,04,24,04,10,7.90
2013,04,24,04,11,7.90
2013,04,24,04,12,7.90
2013,04,24,04,13,8.00
2013,04,24,04,14,8.00
2013,04,24,04,15,8.10
2013,04,24,04,16,8.10
2013,04,24,04,17,8.10
2013,04,24,04,18,8.10
2013,04,24,04,19,8.10
2013,04,24,04,20,8.10
2013,04,24,04,21,8.10
2013,04,24,04,22,8.00
2013,04,24,04,23,7.90
2013,04,24,04,24,7.80
2013,04,24,04,25,7.70
2013,04,24,04,26,7.50
2013,04,24,04,27,7.40
2013,04,24,04,28,7.30
2013,04,24,04,29,7.20
2013,04,24,04,30,7.20
2013,04,24,04,31,7.10
2013,04,24,04,32,7.10
2013,04,24,04,33,7.10
2013,04,24,04,34,7.00
2013,04,24,04,35,7.00
2013,04,24,04,36,6.90
2013,04,24,04,37,6.90
2013,04,24,04,38,6.80
2013,04,24,04,39,6.80
2013,04,24,04,40,6.70
2013,04,24,04,41,6.70
2013,04,24,04,42,6.70
2013,04,24,04,43,6.60
2013,04,24,04,44,6.60
2013,04,24,04,45,6.50
2013,04,24,04,46,6.40
2013,04,24,04,47,6.40
2013,04,24,04,48,6.30
2013,04,24,04,49,6.30
2013,04,24,04,50,6.20
2013,04,24,04,51,6.20
2013,04,24,04,52,6.20
2013,04,24,04,53,6.30
2013,04,24,04,54,6.30
2013,04,24,04,55,6.30
2013,04,24,04,56,6.30
2013,04,24,04,57,6.40
2013,04,24,04,58,6.50
2013,04,24,04,59,6.60
2013,04,24,05,00,6.60
2013,04,24,05,01,6.70
2013,04,24,05,02,6.70
2013,04,24,05,03,6.80
2013,04,24,05,04,6.80
2013,04,24,05,05,6.80
2013,04,24,05,06,6.80
2013,04,24,05,07,6.90
2013,04,24,05,08,6.90
2013,04,24,05,09,7.00
2013,04,24,05,10,7.00
2013,04,24,05,11,7.10
2013,04,24,05,12,7.10
2013,04,24,05,13,7.10
2013,04,24,05,14,7.00
2013,04,24,05,15,6.90
2013,04,24,05,16,6.80
2013,04,24,05,17,6.80
2013,04,24,05,18,6.80
2013,04,24,05,19,6.80
2013,04,24,05,20,6.80
2013,04,24,05,21,6.90
2013,04,24,05,22,6.90
2013,04,24,05,23,6.90
2013,04,24,05,24,7.00
2013,04,24,05,25,7.10
2013,04,24,05,26,7.20
2013,04,24,05,27,7.20
2013,04,24,05,28,7.20
2013,04,24,05,29,7.20
2013,04,24,05,30,7.20
2013,04,24,05,31,7.10
2013,04,24,05,32,7.10
2013,04,24,05,33,7.00
2013,04,24,05,34,6.90
2013,04,24,05,35,6.80
2013,04,24,05,36,6.70
2013,04,24,05,37,6.60
2013,04,24,05,38,6.50
2013,04,24,05,39,6.40
2013,04,24,05,40,6.30
2013,04,24,05,41,6.20
2013,04,24,05,42,6.10
2013,04,24,05,43,6.10
2013,04,24,05,44,6.00
2013,04,24,05,45,6.00
2013,04,24,05,46,5.90
2013,04,24,05,47,5.80
2013,04,24,05,48,5.80
2013,04,24,05,49,5.80
2013,04,24,05,50,5.70
2013,04,24,05,51,5.70
2013,04,24,05,52,5.70
2013,04,24,05,53,5.70
2013,04,24,05,54,5.80
2013,04,24,05,55,5.80
2013,04,24,05,56,5.80
2013,04,24,05,57,5.80
2013,04,24,05,58,5.80
2013,04,24,05,59,5.80
2013,04,24,06,00,5.80
2013,04,24,06,01,5.80
2013,04,24,06,02,5.80
2013,04,24,06,03,5.70
2013,04,24,06,04,5.70
2013,04,24,06,05,5.70
2013,04,24,06,06,5.70
2013,04,24,06,07,5.60
2013,04,24,06,08,5.60
2013,04,24,06,09,5.50
2013,04,24,06,10,5.50
2013,04,24,06,11,5.50
2013,04,24,06,12,5.40
2013,04,24,06,13,5.40
2013,04,24,06,14,5.40
2013,04,24,06,15,5.40
2013,04,24,06,16,5.50
2013,04,24,06,17,5.50
2013,04,24,06,18,5.50
2013,04,24,06,19,5.50
2013,04,24,06,20,5.60
2013,04,24,06,21,5.60
2013,04,24,06,22,5.60
2013,04,24,06,23,5.60
2013,04,24,06,24,5.60
2013,04,24,06,25,5.60
2013,04,24,06,26,5.60
2013,04,24,06,27,5.60
2013,04,24,06,28,5.50
2013,04,24,06,29,5.60
2013,04,24,06,30,5.60
2013,04,24,06,31,5.60
2013,04,24,06,32,5.60
2013,04,24,06,33,5.60
2013,04,24,06,34,5.60
2013,04,24,06,35,5.70
2013,04,24,06,36,5.70
2013,04,24,06,37,5.70
2013,04,24,06,38,5.80
2013,04,24,06,39,5.80
2013,04,24,06,40,5.80
2013,04,24,06,41,5.90
2013,04,24,06,42,5.90
2013,04,24,06,43,6.00
2013,04,24,06,44,6.10
2013,04,24,06,45,6.20
2013,04,24,06,46,6.30
2013,04,24,06,47,6.50
2013,04,24,06,48,6.70
2013,04,24,06,49,6.80
2013,04,24,06,50,7.00
2013,04,24,06,51,7.20
2013,04,24,06,52,7.30
2013,04,24,06,53,7.40
2013,04,24,06,54,7.50
2013,04,24,06,55,7.60
2013,04,24,06,56,7.60
2013,04,24,06,57,7.70
2013,04,24,06,58,7.70
2013,04,24,06,59,7.70
2013,04,24,07,00,7.60
2013,04,24,07,01,7.60
2013,04,24,07,02,7.50
2013,04,24,07,03,7.40
2013,04,24,07,04,7.40
2013,04,24,07,05,7.30
2013,04,24,07,06,7.20
2013,04,24,07,07,7.10
2013,04,24,07,08,6.90
2013,04,24,07,09,6.80
2013,04,24,07,10,6.70
2013,04,24,07,11,6.60
2013,04,24,07,12,6.50
2013,04,24,07,13,6.40
2013,04,24,07,14,6.40
2013,04,24,07,15,6.40
2013,04,24,07,16,6.40
2013,04,24,07,17,6.40
2013,04,24,07,18,6.50
2013,04,24,07,19,6.50
2013,04,24,07,20,6.60
2013,04,24,07,21,6.60
2013,04,24,07,22,6.70
2013,04,24,07,23,6.80
2013,04,24,07,24,6.80
2013,04,24,07,25,6.90
2013,04,24,07,26,6.90
2013,04,24,07,27,7.00
2013,04,24,07,28,7.00
2013,04,24,07,29,7.10
2013,04,24,07,30,7.20
2013,04,24,07,31,7.30
2013,04,24,07,32,7.40
2013,04,24,07,33,7.50
2013,04,24,07,34,7.60
2013,04,24,07,35,7.70
2013,04,24,07,36,7.80
2013,04,24,07,37,7.90
2013,04,24,07,38,8.00
2013,04,24,07,39,8.10
2013,04,24,07,40,8.10
2013,04,24,07,41,8.20
2013,04,24,07,42,8.20
2013,04,24,07,43,8.30
2013,04,24,07,44,8.30
2013,04,24,07,45,8.30
2013,04,24,07,46,8.30
2013,04,24,07,47,8.30
2013,04,24,07,48,8.30
2013,04,24,07,49,8.40
2013,04,24,07,50,8.40
2013,04,24,07,51,8.50
2013,04,24,07,52,8.50
2013,04,24,07,53,8.60
2013,04,24,07,54,8.70
2013,04,24,07,55,8.70
2013,04,24,07,56,8.80
2013,04,24,07,57,8.90
2013,04,24,07,58,9.00
2013,04,24,07,59,9.00
2013,04,24,08,00,9.10
2013,04,24,08,01,9.10
2013,04,24,08,02,9.20
2013,04,24,08,03,9.20
2013,04,24,08,04,9.30
2013,04,24,08,05,9.40
2013,04,24,08,06,9.40
2013,04,24,08,07,9.50
2013,04,24,08,08,9.60
2013,04,24,08,09,9.60
2013,04,24,08,10,9.70
2013,04,24,08,11,9.70
2013,04,24,08,12,9.80
2013,04,24,08,13,9.80
2013,04,24,08,14,9.90
2013,04,24,08,15,9.90
2013,04,24,08,16,10.00
2013,04,24,08,17,10.10
2013,04,24,08,18,10.10
2013,04,24,08,19,10.10
2013,04,24,08,20,10.20
2013,04,24,08,21,10.20
2013,04,24,08,22,10.30
2013,04,24,08,23,10.40
2013,04,24,08,24,10.40
2013,04,24,08,25,10.50
2013,04,24,08,26,10.60
2013,04,24,08,27,10.60
2013,04,24,08,28,10.70
2013,04,24,08,29,10.70
2013,04,24,08,30,10.80
2013,04,24,08,31,10.80
2013,04,24,08,32,10.80
2013,04,24,08,33,10.90
2013,04,24,08,34,10.90
2013,04,24,08,35,10.90
2013,04,24,08,36,11.00
2013,04,24,08,37,11.10
2013,04,24,08,38,11.10
2013,04,24,08,39,11.10
2013,04,24,08,40,11.10
2013,04,24,08,41,11.20
2013,04,24,08,42,11.20
2013,04,24,08,43,11.30
2013,04,24,08,44,11.30
2013,04,24,08,45,11.30
2013,04,24,08,46,11.40
2013,04,24,08,47,11.40
2013,04,24,08,48,11.50
2013,04,24,08,49,11.60
2013,04,24,08,50,11.70
2013,04,24,08,51,11.80
2013,04,24,08,52,11.90
2013,04,24,08,53,12.00
2013,04,24,08,54,12.00
2013,04,24,08,55,12.10
2013,04,24,08,56,12.10
2013,04,24,08,57,12.10
2013,04,24,08,58,12.10
2013,04,24,08,59,12.10
2013,04,24,09,00,12.10
2013,04,24,09,01,12.20
2013,04,24,09,02,12.20
2013,04,24,09,03,12.30
2013,04,24,09,04,12.30
2013,04,24,09,05,12.30
2013,04,24,09,06,12.30
2013,04,24,09,07,12.20
2013,04,24,09,08,12.30
2013,04,24,09,09,12.30
2013,04,24,09,10,12.30
2013,04,24,09,11,12.30
2013,04,24,09,12,12.30
2013,04,24,09,13,12.30
2013,04,24,09,14,12.20
2013,04,24,09,15,12.20
2013,04,24,09,16,12.20
2013,04,24,09,17,12.20
2013,04,24,09,18,12.20
2013,04,24,09,19,12.20
2013,04,24,09,20,12.10
2013,04,24,09,21,12.10
2013,04,24,09,22,12.20
2013,04,24,09,23,12.20
2013,04,24,09,24,12.30
2013,04,24,09,25,12.40
2013,04,24,09,26,12.50
2013,04,24,09,27,12.60
2013,04,24,09,28,12.60
2013,04,24,09,29,12.60
2013,04,24,09,30,12.60
2013,04,24,09,31,12.60
2013,04,24,09,32,12.60
2013,04,24,09,33,12.60
2013,04,24,09,34,12.60
2013,04,24,09,35,12.60
2013,04,24,09,36,12.60
2013,04,24,09,37,12.60
2013,04,24,09,38,12.60
2013,04,24,09,39,12.60
2013,04,24,09,40,12.60
2013,04,24,09,41,12.60
2013,04,24,09,42,12.60
2013,04,24,09,43,12.50
2013,04,24,09,44,12.50
2013,04,24,09,45,12.50
2013,04,24,09,46,12.50
2013,04,24,09,47,12.50
2013,04,24,09,48,12.50
2013,04,24,09,49,12.60
2013,04,24,09,50,12.70
2013,04,24,09,51,12.70
2013,04,24,09,52,12.70
2013,04,24,09,53,12.70
2013,04,24,09,54,12.70
2013,04,24,09,55,12.60
2013,04,24,09,56,12.60
2013,04,24,09,57,12.60
2013,04,24,09,58,12.70
2013,04,24,09,59,12.70
2013,04,24,10,00,12.80
2013,04,24,10,01,12.80
2013,04,24,10,02,12.80
2013,04,24,10,03,12.80
2013,04,24,10,04,12.80
2013,04,24,10,05,12.80
2013,04,24,10,06,12.90
2013,04,24,10,07,12.90
2013,04,24,10,08,12.90
2013,04,24,10,09,13.00
2013,04,24,10,10,13.00
2013,04,24,10,11,13.00
2013,04,24,10,12,13.10
2013,04,24,10,13,13.10
2013,04,24,10,14,13.20
2013,04,24,10,15,13.20
2013,04,24,10,16,13.30
2013,04,24,10,17,13.40
2013,04,24,10,18,13.50
2013,04,24,10,19,13.40
2013,04,24,10,20,13.30
2013,04,24,10,21,13.30
2013,04,24,10,22,13.20
2013,04,24,10,23,13.20
2013,04,24,10,24,13.30
2013,04,24,10,25,13.30
2013,04,24,10,26,13.30
2013,04,24,10,27,13.30
2013,04,24,10,28,13.30
2013,04,24,10,29,13.30
2013,04,24,10,30,13.40
2013,04,24,10,31,13.50
2013,04,24,10,32,13.60
2013,04,24,10,33,13.60
2013,04,24,10,34,13.60
2013,04,24,10,35,13.60
2013,04,24,10,36,13.60
2013,04,24,10,37,13.70
2013,04,24,10,38,13.70
2013,04,24,10,39,13.70
2013,04,24,10,40,13.70
2013,04,24,10,41,13.60
2013,04,24,10,42,13.60
2013,04,24,10,43,13.70
2013,04,24,10,44,13.70
2013,04,24,10,45,13.70
2013,04,24,10,46,13.70
2013,04,24,10,47,13.70
2013,04,24,10,48,13.70
2013,04,24,10,49,13.80
2013,04,24,10,50,13.80
2013,04,24,10,51,13.80
2013,04,24,10,52,13.80
2013,04,24,10,53,13.80
2013,04,24,10,54,13.80
2013,04,24,10,55,13.90
2013,04,24,10,56,13.90
2013,04,24,10,57,14.00
2013,04,24,10,58,14.00
2013,04,24,10,59,14.10
2013,04,24,11,00,14.20
2013,04,24,11,01,14.30
2013,04,24,11,02,14.30
2013,04,24,11,03,14.40
2013,04,24,11,04,14.50
2013,04,24,11,05,14.50
2013,04,24,11,06,14.50
2013,04,24,11,07,14.50
2013,04,24,11,08,14.40
2013,04,24,11,09,14.50
2013,04,24,11,10,14.50
2013,04,24,11,11,14.60
2013,04,24,11,12,14.60
2013,04,24,11,13,14.60
2013,04,24,11,14,14.70
2013,04,24,11,15,14.70
2013,04,24,11,16,14.80
2013,04,24,11,17,14.80
2013,04,24,11,18,14.80
2013,04,24,11,19,14.80
2013,04,24,11,20,14.90
2013,04,24,11,21,14.90
2013,04,24,11,22,15.00
2013,04,24,11,23,15.10
2013,04,24,11,24,15.20
2013,04,24,11,25,15.20
2013,04,24,11,26,15.10
2013,04,24,11,27,15.00
2013,04,24,11,28,14.80
2013,04,24,11,29,14.70
2013,04,24,11,30,14.60
2013,04,24,11,31,14.60
2013,04,24,11,32,14.70
2013,04,24,11,33,14.80
2013,04,24,11,34,14.80
2013,04,24,11,35,14.90
2013,04,24,11,36,14.90
2013,04,24,11,37,14.90
2013,04,24,11,38,14.90
2013,04,24,11,39,15.00
2013,04,24,11,40,15.00
2013,04,24,11,41,14.90
2013,04,24,11,42,14.90
2013,04,24,11,43,14.90
2013,04,24,11,44,14.90
2013,04,24,11,45,14.90
2013,04,24,11,46,15.00
2013,04,24,11,47,15.00
2013,04,24,11,48,15.10
2013,04,24,11,49,15.20
2013,04,24,11,50,15.30
2013,04,24,11,51,15.30
2013,04,24,11,52,15.40
2013,04,24,11,53,15.40
2013,04,24,11,54,15.30
2013,04,24,11,55,15.20
2013,04,24,11,56,15.20
2013,04,24,11,57,15.20
2013,04,24,11,58,15.20
2013,04,24,11,59,15.30
2013,04,24,12,00,15.40
2013,04,24,12,01,15.40
2013,04,24,12,02,15.40
2013,04,24,12,03,15.40
2013,04,24,12,04,15.40
2013,04,24,12,05,15.50
2013,04,24,12,06,15.50
2013,04,24,12,07,15.50
2013,04,24,12,08,15.60
2013,04,24,12,09,15.50
2013,04,24,12,10,15.50
2013,04,24,12,11,15.40
2013,04,24,12,12,15.40
2013,04,24,12,13,15.30
2013,04,24,12,14,15.20
2013,04,24,12,15,15.10
2013,04,24,12,16,15.10
2013,04,24,12,17,15.20
2013,04,24,12,18,15.20
2013,04,24,12,19,15.30
2013,04,24,12,20,15.40
2013,04,24,12,21,15.50
2013,04,24,12,22,15.60
2013,04,24,12,23,15.60
2013,04,24,12,24,15.70
2013,04,24,12,25,15.70
2013,04,24,12,26,15.70
2013,04,24,12,27,15.70
2013,04,24,12,28,15.70
2013,04,24,12,29,15.80
2013,04,24,12,30,15.70
2013,04,24,12,31,15.70
2013,04,24,12,32,15.80
2013,04,24,12,33,15.90
2013,04,24,12,34,16.00
2013,04,24,12,35,16.10
2013,04,24,12,36,16.20
2013,04,24,12,37,16.20
2013,04,24,12,38,16.20
2013,04,24,12,39,16.10
2013,04,24,12,40,16.10
2013,04,24,12,41,16.00
2013,04,24,12,42,16.00
2013,04,24,12,43,16.00
2013,04,24,12,44,16.00
2013,04,24,12,45,15.90
2013,04,24,12,46,16.00
2013,04,24,12,47,16.00
2013,04,24,12,48,16.10
2013,04,24,12,49,16.10
2013,04,24,12,50,16.10
2013,04,24,12,51,16.00
2013,04,24,12,52,16.00
2013,04,24,12,53,16.00
2013,04,24,12,54,15.90
2013,04,24,12,55,15.90
2013,04,24,12,56,15.90
2013,04,24,12,57,15.90
2013,04,24,12,58,16.00
2013,04,24,12,59,16.00
2013,04,24,13,00,15.90
2013,04,24,13,01,15.90
2013,04,24,13,02,15.80
2013,04,24,13,03,15.80
2013,04,24,13,04,15.80
2013,04,24,13,05,16.00
2013,04,24,13,06,16.10
2013,04,24,13,07,16.20
2013,04,24,13,08,16.20
2013,04,24,13,09,16.20
2013,04,24,13,10,16.20
2013,04,24,13,11,16.20
2013,04,24,13,12,16.10
2013,04,24,13,13,16.00
2013,04,24,13,14,16.00
2013,04,24,13,15,15.90
2013,04,24,13,16,15.80
2013,04,24,13,17,15.80
2013,04,24,13,18,15.90
2013,04,24,13,19,15.90
2013,04,24,13,20,15.90
2013,04,24,13,21,15.90
2013,04,24,13,22,15.90
2013,04,24,13,23,15.90
2013,04,24,13,24,15.90
2013,04,24,13,25,15.90
2013,04,24,13,26,15.80
2013,04,24,13,27,15.90
2013,04,24,13,28,16.00
2013,04,24,13,29,16.20
2013,04,24,13,30,16.20
2013,04,24,13,31,16.30
2013,04,24,13,32,16.40
2013,04,24,13,33,16.30
2013,04,24,13,34,16.20
2013,04,24,13,35,16.20
2013,04,24,13,36,16.10
2013,04,24,13,37,16.10
2013,04,24,13,38,16.20
2013,04,24,13,39,16.20
2013,04,24,13,40,16.20
2013,04,24,13,41,16.20
2013,04,24,13,42,16.20
2013,04,24,13,43,16.20
2013,04,24,13,44,16.20
2013,04,24,13,45,16.30
2013,04,24,13,46,16.40
2013,04,24,13,47,16.60
2013,04,24,13,48,16.70
2013,04,24,13,49,16.70
2013,04,24,13,50,16.70
2013,04,24,13,51,16.60
2013,04,24,13,52,16.70
2013,04,24,13,53,16.80
2013,04,24,13,54,16.90
2013,04,24,13,55,17.10
2013,04,24,13,56,17.10
2013,04,24,13,57,17.00
2013,04,24,13,58,16.70
2013,04,24,13,59,16.60
2013,04,24,14,00,16.40
2013,04,24,14,01,16.30
2013,04,24,14,02,16.10
2013,04,24,14,03,16.00
2013,04,24,14,04,15.90
2013,04,24,14,05,15.90
2013,04,24,14,06,16.00
2013,04,24,14,07,16.00
2013,04,24,14,08,16.00
2013,04,24,14,09,16.00
2013,04,24,14,10,16.10
2013,04,24,14,11,16.10
2013,04,24,14,12,16.00
2013,04,24,14,13,16.00
2013,04,24,14,14,16.10
2013,04,24,14,15,16.10
2013,04,24,14,16,16.10
2013,04,24,14,17,16.10
2013,04,24,14,18,16.00
2013,04,24,14,19,15.90
2013,04,24,14,20,15.80
2013,04,24,14,21,15.80
2013,04,24,14,22,15.80
2013,04,24,14,23,15.90
2013,04,24,14,24,15.80
2013,04,24,14,25,15.90
2013,04,24,14,26,15.90
2013,04,24,14,27,15.80
2013,04,24,14,28,15.80
2013,04,24,14,29,15.80
2013,04,24,14,30,15.70
2013,04,24,14,31,15.60
2013,04,24,14,32,15.60
2013,04,24,14,33,15.50
2013,04,24,14,34,15.30
2013,04,24,14,35,15.30
2013,04,24,14,36,15.30
2013,04,24,14,37,15.40
2013,04,24,14,38,15.40
2013,04,24,14,39,15.50
2013,04,24,14,40,15.60
2013,04,24,14,41,15.70
2013,04,24,14,42,15.60
2013,04,24,14,43,15.50
2013,04,24,14,44,15.50
2013,04,24,14,45,15.40
2013,04,24,14,46,15.30
2013,04,24,14,47,15.40
2013,04,24,14,48,15.40
2013,04,24,14,49,15.40
2013,04,24,14,50,15.40
2013,04,24,14,51,15.40
2013,04,24,14,52,15.40
2013,04,24,14,53,15.30
2013,04,24,14,54,15.30
2013,04,24,14,55,15.40
2013,04,24,14,56,15.50
2013,04,24,14,57,15.40
2013,04,24,14,58,15.50
2013,04,24,14,59,15.50
2013,04,24,15,00,15.60
2013,04,24,15,01,15.70
2013,04,24,15,02,15.80
2013,04,24,15,03,15.90
2013,04,24,15,04,15.90
2013,04,24,15,05,16.00
2013,04,24,15,06,16.10
2013,04,24,15,07,16.20
2013,04,24,15,08,16.20
2013,04,24,15,09,16.20
2013,04,24,15,10,16.20
2013,04,24,15,11,16.20
2013,04,24,15,12,16.10
2013,04,24,15,13,16.00
2013,04,24,15,14,15.90
2013,04,24,15,15,15.90
2013,04,24,15,16,15.90
2013,04,24,15,17,15.80
2013,04,24,15,18,15.80
2013,04,24,15,19,15.80
2013,04,24,15,20,15.80
2013,04,24,15,21,15.80
2013,04,24,15,22,15.80
2013,04,24,15,23,15.70
2013,04,24,15,24,15.70
2013,04,24,15,25,15.70
2013,04,24,15,26,15.70
2013,04,24,15,27,15.80
2013,04,24,15,28,15.80
2013,04,24,15,29,15.90
2013,04,24,15,30,15.80
2013,04,24,15,31,15.80
2013,04,24,15,32,15.80
2013,04,24,15,33,15.80
2013,04,24,15,34,15.70
2013,04,24,15,35,15.60
2013,04,24,15,36,15.50
2013,04,24,15,37,15.40
2013,04,24,15,38,15.30
2013,04,24,15,39,15.30
2013,04,24,15,40,15.40
2013,04,24,15,41,15.40
2013,04,24,15,42,15.50
2013,04,24,15,43,15.50
2013,04,24,15,44,15.60
2013,04,24,15,45,15.60
2013,04,24,15,46,15.70
2013,04,24,15,47,15.70
2013,04,24,15,48,15.70
2013,04,24,15,49,15.70
2013,04,24,15,50,15.70
2013,04,24,15,51,15.70
2013,04,24,15,52,15.80
2013,04,24,15,53,15.80
2013,04,24,15,54,15.80
2013,04,24,15,55,15.80
2013,04,24,15,56,15.80
2013,04,24,15,57,15.80
2013,04,24,15,58,15.90
2013,04,24,15,59,16.00
2013,04,24,16,00,16.00
2013,04,24,16,01,16.10
2013,04,24,16,02,16.10
2013,04,24,16,03,16.10
2013,04,24,16,04,16.10
2013,04,24,16,05,16.10
2013,04,24,16,06,16.10
2013,04,24,16,07,16.00
2013,04,24,16,08,15.90
2013,04,24,16,09,15.80
2013,04,24,16,10,15.80
2013,04,24,16,11,15.80
2013,04,24,16,12,15.90
2013,04,24,16,13,15.90
2013,04,24,16,14,15.90
2013,04,24,16,15,15.80
2013,04,24,16,16,15.80
2013,04,24,16,17,15.80
2013,04,24,16,18,15.70
2013,04,24,16,19,15.70
2013,04,24,16,20,15.60
2013,04,24,16,21,15.60
2013,04,24,16,22,15.50
2013,04,24,16,23,15.40
2013,04,24,16,24,15.40
2013,04,24,16,25,15.30
2013,04,24,16,26,15.30
2013,04,24,16,27,15.30
2013,04,24,16,28,15.30
2013,04,24,16,29,15.30
2013,04,24,16,30,15.30
2013,04,24,16,31,15.30
2013,04,24,16,32,15.30
2013,04,24,16,33,15.30
2013,04,24,16,34,15.30
2013,04,24,16,35,15.40
2013,04,24,16,36,15.50
2013,04,24,16,37,15.50
2013,04,24,16,38,15.60
2013,04,24,16,39,15.50
2013,04,24,16,40,15.50
2013,04,24,16,41,15.40
2013,04,24,16,42,15.40
2013,04,24,16,43,15.50
2013,04,24,16,44,15.60
2013,04,24,16,45,15.60
2013,04,24,16,46,15.70
2013,04,24,16,47,15.70
2013,04,24,16,48,15.70
2013,04,24,16,49,15.60
2013,04,24,16,50,15.50
2013,04,24,16,51,15.50
2013,04,24,16,52,15.50
2013,04,24,16,53,15.50
2013,04,24,16,54,15.50
2013,04,24,16,55,15.50
2013,04,24,16,56,15.50
2013,04,24,16,57,15.50
2013,04,24,16,58,15.40
2013,04,24,16,59,15.40
2013,04,24,17,00,15.40
2013,04,24,17,01,15.40
2013,04,24,17,02,15.40
2013,04,24,17,03,15.40
2013,04,24,17,04,15.50
2013,04,24,17,05,15.60
2013,04,24,17,06,15.60
2013,04,24,17,07,15.60
2013,04,24,17,08,15.60
2013,04,24,17,09,15.60
2013,04,24,17,10,15.60
2013,04,24,17,11,15.60
2013,04,24,17,12,15.50
2013,04,24,17,13,15.40
2013,04,24,17,14,15.30
2013,04,24,17,15,15.30
2013,04,24,17,16,15.30
2013,04,24,17,17,15.30
2013,04,24,17,18,15.30
2013,04,24,17,19,15.20
2013,04,24,17,20,15.20
2013,04,24,17,21,15.20
2013,04,24,17,22,15.30
2013,04,24,17,23,15.30
2013,04,24,17,24,15.30
2013,04,24,17,25,15.30
2013,04,24,17,26,15.30
2013,04,24,17,27,15.30
2013,04,24,17,28,15.30
2013,04,24,17,29,15.20
2013,04,24,17,30,15.20
2013,04,24,17,31,15.20
2013,04,24,17,32,15.20
2013,04,24,17,33,15.20
2013,04,24,17,34,15.20
2013,04,24,17,35,15.20
2013,04,24,17,36,15.20
2013,04,24,17,37,15.20
2013,04,24,17,38,15.20
2013,04,24,17,39,15.30
2013,04,24,17,40,15.30